Date,TemperatureHighF,TemperatureAvgF,TemperatureLowF,DewpointHighF,DewpointAvgF,DewpointLowF,HumidityHigh,HumidityAvg,HumidityLow,PressureMaxIn,PressureMinIn,WindSpeedMaxMPH,WindSpeedAvgMPH,GustSpeedMaxMPH,PrecipitationSumIn
2013-1-1,18.7,4.3,-7.1,10.9,-1.1,-12.4,89,78,68,30.79,30.28,1,0,5,0.00
2013-1-2,21.4,0.6,-13.6,10.4,-5.8,-19.4,86,74,60,30.89,30.72,2,0,6,0.00
2013-1-3,23.8,1.2,-12.6,7.8,-6.6,-18.4,85,70,45,30.99,30.84,1,0,3,0.00
2013-1-4,26.6,4.5,-9.8,11.5,-3.3,-15.5,85,71,49,30.93,30.70,1,0,4,0.00
2013-1-5,28.4,5.5,-10.3,13.8,-1.8,-16.2,89,72,50,30.96,30.79,2,0,4,0.00
2013-1-6,39.4,15.8,-1.7,17.7,6.6,-6.8,92,70,31,30.94,30.50,1,0,2,0.00
2013-1-7,41.6,18.2,6.1,18.9,7.6,1.3,84,66,27,30.51,30.24,1,0,5,0.00
2013-1-8,37.9,15.9,0.5,19.8,6.6,-4.5,88,69,35,30.70,30.34,2,0,3,0.00
2013-1-9,41.4,19.2,5.7,21.8,9.9,1.2,89,70,36,30.84,30.52,2,0,5,0.01
2013-1-10,37.6,21.4,4.2,26.0,13.7,-0.6,91,75,35,30.52,29.95,1,0,5,0.00
2013-1-11,27.0,12.0,-11.5,24.6,6.2,-17.6,92,77,60,30.25,29.63,3,1,9,0.00
2013-1-12,12.1,-3.7,-19.4,4.1,-10.5,-26.0,82,72,55,30.63,30.25,1,0,3,0.00
2013-1-13,11.9,0.1,-16.3,5.2,-5.4,-22.7,92,77,69,30.66,30.50,1,0,3,0.00
2013-1-14,16.9,7.1,-10.5,8.2,1.5,-16.5,92,78,63,30.54,30.31,2,0,4,0.00
2013-1-15,16.0,-3.3,-18.3,4.4,-10.4,-24.9,83,71,56,31.03,30.52,2,0,6,0.00
2013-1-16,26.7,7.0,-8.3,13.6,-0.3,-13.7,86,72,53,31.07,30.89,1,0,3,0.00
2013-1-17,38.8,16.8,2.5,22.8,10.0,-3.1,92,76,49,31.02,30.79,1,0,4,0.00
2013-1-18,39.3,17.1,3.5,22.3,9.6,-1.3,90,74,44,30.82,30.61,1,0,5,0.00
2013-1-19,41.2,16.5,-0.6,21.9,7.8,-5.6,89,71,35,30.79,30.67,2,0,4,0.01
2013-1-20,39.4,16.6,0.5,17.7,6.6,-4.5,91,68,33,30.78,30.56,1,0,4,0.00
2013-1-21,40.8,17.9,2.3,21.1,8.7,-2.6,89,70,35,30.73,30.59,1,0,4,0.01
2013-1-22,42.4,18.8,3.6,22.8,10.0,-0.8,89,71,33,30.74,30.61,2,0,3,0.01
2013-1-23,46.5,21.3,3.6,22.6,10.9,-1.0,89,68,25,30.78,30.66,1,0,4,0.07
2013-1-24,45.5,28.3,13.4,27.5,18.5,9.0,87,69,38,30.70,30.44,3,0,4,0.06
2013-1-25,39.9,33.0,27.2,32.3,28.3,23.8,89,83,71,30.51,30.31,2,0,4,0.05
2013-1-26,34.7,32.3,30.5,33.1,30.4,27.9,100,93,89,30.32,29.99,0,0,1,0.48
2013-1-27,32.1,32.0,31.9,30.8,30.7,30.4,95,95,94,30.02,30.01,0,0,1,0.02
2013-3-19,48.8,37.6,23.6,22.0,17.9,14.0,79,48,28,30.30,30.12,2,0,5,0.00
2013-3-20,46.1,32.7,18.2,30.5,21.4,13.3,83,66,33,30.35,30.03,3,0,7,0.00
2013-3-21,48.1,36.0,24.9,31.1,22.1,11.9,92,62,26,30.03,29.71,3,1,10,0.00
2013-3-22,46.2,31.0,16.9,19.7,12.6,2.4,80,51,18,29.91,29.74,4,1,13,0.00
2013-3-23,33.7,22.4,9.9,11.8,1.7,-8.9,67,41,25,30.30,29.76,3,1,12,0.00
2013-3-24,37.3,20.6,3.3,9.4,2.8,-1.8,82,50,23,30.41,30.22,3,0,8,0.00
2013-3-25,40.1,23.4,5.4,16.4,5.5,-0.4,80,50,19,30.43,30.29,3,0,6,0.00
2013-3-26,47.6,33.0,16.8,24.3,17.0,11.1,81,55,30,30.40,30.11,3,0,6,0.00
2013-3-27,55.8,40.6,26.8,26.2,21.3,13.8,82,50,22,30.12,30.01,3,0,9,0.00
2013-3-28,55.7,40.1,25.4,25.0,21.0,16.7,80,51,23,30.19,30.07,3,0,6,0.00
2013-3-29,55.8,39.3,27.0,33.5,25.7,21.3,82,61,33,30.27,30.16,2,0,5,0.00
2013-3-30,61.2,40.5,24.3,28.2,23.5,20.3,92,57,23,30.29,30.07,3,0,9,0.00
2013-3-31,61.4,42.0,25.4,28.2,23.7,18.7,88,55,21,30.16,29.99,3,0,7,0.00
2013-4-1,57.4,43.4,30.2,32.5,24.9,16.2,85,53,22,30.07,29.84,3,1,6,0.00
2013-4-2,50.8,35.3,23.3,25.3,21.4,17.1,84,60,27,30.08,29.89,3,0,7,0.00
2013-4-3,57.1,37.3,21.7,28.3,20.9,11.8,88,57,18,30.24,30.08,3,0,6,0.00
2013-4-4,61.1,41.6,22.8,28.1,21.3,16.5,81,50,23,30.32,30.12,3,0,7,0.00
2013-4-5,57.6,42.4,28.8,28.6,24.6,21.2,81,54,25,30.18,29.88,3,0,7,0.00
2013-4-6,62.7,45.2,28.8,29.6,23.9,17.1,87,50,19,29.99,29.83,2,0,10,0.00
2013-4-7,58.3,42.5,27.8,27.8,22.8,17.2,84,51,22,29.88,29.75,4,1,12,0.00
2013-4-8,54.2,39.2,28.3,31.3,25.4,19.0,90,61,26,29.78,29.30,4,1,12,0.00
2013-4-9,36.6,31.6,30.0,33.5,29.6,28.2,94,92,86,29.88,29.41,1,0,3,0.05
2013-4-10,30.7,27.4,19.0,28.3,24.4,16.0,93,88,80,30.13,29.88,2,0,4,0.00
2013-4-11,44.0,28.6,11.4,36.2,23.3,8.0,92,81,56,30.22,30.02,1,0,4,0.69
2013-4-12,49.9,34.4,18.7,31.5,23.7,16.0,100,69,36,30.13,29.96,2,0,5,0.00
2013-4-13,57.2,42.8,22.4,28.1,22.6,18.8,88,51,24,30.07,29.59,4,1,11,0.00
2013-4-14,54.5,44.8,37.6,33.6,27.1,20.0,83,52,29,29.60,29.47,3,1,8,0.01
2013-4-15,55.8,46.1,37.3,31.5,27.1,20.2,75,50,26,29.66,29.53,3,1,9,0.00
2013-4-16,59.8,46.2,30.5,29.7,23.4,16.0,85,45,20,29.72,29.51,5,1,20,0.00
2013-4-17,44.4,36.3,25.9,26.4,16.5,0.8,71,45,21,29.89,29.56,3,1,9,0.00
2013-4-18,37.2,27.6,16.1,6.5,1.5,-5.2,60,34,19,30.42,29.90,3,1,9,0.00
2013-4-19,50.1,31.6,13.0,20.4,10.7,2.5,73,45,24,30.50,30.17,4,1,10,0.00
2013-4-20,48.8,37.4,24.7,30.6,23.4,18.7,80,58,39,30.17,29.95,3,0,6,0.00
2013-4-21,58.5,39.7,21.0,25.3,20.5,13.8,85,52,19,30.25,30.03,3,1,12,0.00
2013-4-22,64.8,48.2,34.1,31.5,24.8,17.3,73,45,19,30.08,29.68,3,1,16,0.00
2013-4-23,54.3,39.0,26.6,26.6,14.0,-2.5,80,43,12,30.13,29.68,4,1,13,0.00
2013-4-24,57.2,38.6,21.9,22.0,13.2,3.6,64,39,17,30.23,30.11,4,1,9,0.00
2013-4-25,61.3,44.3,29.0,32.6,24.6,18.8,77,50,23,30.20,29.88,4,1,10,0.00
2013-4-26,58.0,36.1,28.1,32.2,27.7,24.6,87,74,30,30.13,30.01,2,0,4,0.00
2013-6-5,71.5,57.1,46.9,32.0,29.2,27.0,47,36,21,29.85,29.73,1,0,6,0.00
2013-6-6,77.8,56.1,35.0,40.4,32.4,25.3,74,44,20,29.90,29.77,2,0,7,0.00
2013-6-7,74.3,51.9,36.1,41.7,34.1,29.6,80,55,28,29.95,29.75,2,0,5,0.00
2013-6-8,81.1,67.4,52.1,38.8,34.7,30.2,51,32,16,29.78,29.64,2,0,6,0.00
2013-6-9,88.6,66.2,41.0,44.7,35.2,29.1,74,38,15,29.84,29.68,3,0,11,0.00
2013-6-10,89.4,76.4,54.1,38.6,34.2,27.3,47,24,13,29.77,29.65,3,1,7,0.00
2013-6-11,83.7,62.4,42.0,36.9,30.0,23.6,66,35,11,29.92,29.76,3,0,7,0.00
2013-6-12,49.3,45.4,43.1,30.4,27.9,25.5,56,50,47,29.95,29.91,0,0,1,0.00
2013-6-15,80.5,66.0,49.5,39.3,36.1,31.1,58,35,19,29.98,29.80,4,1,7,0.00
2013-6-16,79.0,60.1,41.6,49.8,37.1,31.9,78,47,22,30.01,29.85,3,0,7,0.00
2013-6-17,79.8,58.1,43.1,41.9,36.3,31.4,73,49,20,29.94,29.83,2,0,5,0.00
2013-6-18,81.3,73.5,56.6,46.1,36.7,19.9,42,27,12,29.89,29.70,2,1,8,0.00
2013-6-19,82.5,70.1,48.6,30.8,25.1,16.3,42,20,10,29.81,29.65,3,1,13,0.00
2013-6-20,80.4,58.5,37.0,32.1,25.7,19.7,62,32,12,29.84,29.73,3,1,10,0.00
2013-6-21,77.4,54.5,38.4,32.1,27.2,22.9,63,39,17,29.92,29.81,2,0,5,0.00
2013-6-25,81.4,71.2,51.4,39.8,35.6,29.1,54,29,19,29.91,29.77,3,1,9,0.00
2013-6-26,89.0,65.7,42.4,42.8,37.3,31.4,72,40,17,29.99,29.82,2,0,9,0.00
2013-6-27,93.5,67.9,47.2,44.5,38.7,34.1,69,39,15,29.98,29.85,2,0,5,0.00
2013-6-28,90.3,65.5,49.8,51.0,41.7,34.3,69,45,18,30.02,29.86,2,0,7,0.01
2013-6-29,80.8,59.8,48.5,56.8,48.2,40.3,85,67,30,30.03,29.89,1,0,5,0.03
2013-6-30,84.4,65.1,45.1,50.7,44.9,38.7,89,54,23,30.05,29.75,2,0,7,0.00
2013-7-1,79.8,61.9,46.1,49.8,44.3,38.9,82,56,32,30.00,29.79,2,0,6,0.00
2013-7-2,79.3,71.3,56.4,52.4,47.3,35.0,67,44,21,29.97,29.73,2,1,5,0.00
2013-7-3,80.5,64.1,46.6,51.9,45.0,35.1,84,54,21,29.93,29.62,2,0,5,0.00
2013-7-4,81.1,64.2,52.9,58.9,47.7,42.4,81,57,27,29.80,29.63,2,0,6,0.05
2013-7-5,82.2,63.7,52.7,57.7,51.1,46.0,85,66,34,29.79,29.62,2,0,6,0.03
2013-7-6,79.7,62.6,52.1,55.2,50.7,44.4,92,69,32,29.89,29.67,2,0,5,0.08
2013-7-7,86.0,66.9,52.2,54.3,50.8,47.2,93,62,28,29.87,29.68,2,0,7,0.00
2013-7-8,85.4,67.8,51.0,52.7,46.8,40.6,83,51,23,29.91,29.75,2,0,6,0.00
2013-7-9,85.6,67.3,49.8,53.1,46.7,41.5,82,51,23,29.97,29.80,3,0,6,0.00
2013-7-10,87.4,67.2,54.1,57.9,49.1,43.2,86,56,27,29.92,29.72,2,0,7,0.02
2013-7-11,85.3,64.3,48.7,55.6,50.7,45.5,91,66,31,29.95,29.71,3,0,6,0.05
2013-7-12,82.1,63.3,52.8,58.3,53.0,47.3,92,72,36,29.91,29.73,3,0,7,0.04
2013-7-13,84.7,64.9,50.0,56.3,51.1,46.3,93,65,29,29.95,29.79,3,0,6,0.01
2013-7-14,82.2,62.6,53.8,58.5,51.8,47.8,90,70,33,29.91,29.74,2,0,6,0.15
2013-7-15,75.1,60.3,53.9,58.6,54.5,51.4,94,83,47,29.93,29.80,2,0,4,0.27
2013-7-16,69.1,58.5,52.9,56.4,52.9,50.6,94,83,58,30.06,29.92,1,0,3,0.03
2013-7-17,77.2,62.5,53.3,56.6,53.0,49.9,95,74,46,30.11,29.93,2,0,6,0.08
2013-7-18,58.6,54.0,48.4,52.8,49.5,45.4,92,85,77,30.05,30.01,0,0,1,0.00
2013-7-23,82.6,67.0,47.1,52.4,46.4,40.5,81,51,25,29.91,29.81,1,0,4,0.00
2013-7-24,85.0,65.2,52.9,55.5,47.8,41.0,92,58,24,29.92,29.75,0,0,1,0.06
2013-7-25,79.8,61.7,50.3,60.2,53.7,48.4,96,78,45,29.95,29.80,0,0,0,0.01
2013-7-26,73.9,57.7,46.9,60.5,52.3,44.6,95,84,47,30.13,29.94,0,0,0,0.38
2013-7-27,77.6,60.1,46.7,55.5,50.7,45.1,96,74,42,30.14,29.82,0,0,0,0.05
2013-7-28,66.9,57.7,53.3,60.6,55.1,51.4,96,91,75,29.88,29.75,0,0,0,0.60
2013-7-29,78.3,61.2,50.9,56.9,50.0,42.2,97,71,30,30.01,29.87,0,0,0,0.06
2013-7-30,83.5,61.9,44.4,50.4,45.0,39.7,95,60,24,30.14,30.00,0,0,0,0.00
2013-7-31,83.6,64.1,44.3,50.2,43.1,39.0,90,53,23,30.14,29.91,0,0,0,0.00
2013-8-1,73.1,59.4,51.5,57.0,50.3,41.1,94,73,46,30.00,29.88,0,0,0,0.16
2013-8-2,77.6,61.2,48.6,61.1,53.0,47.0,96,77,48,30.01,29.81,0,0,0,0.35
2013-8-3,81.0,62.1,49.8,56.4,51.6,48.0,96,72,37,30.00,29.87,0,0,0,0.01
2013-8-4,81.8,62.2,46.0,54.5,49.0,43.2,93,67,32,30.03,29.85,0,0,0,0.11
2013-8-5,79.5,62.8,49.8,57.1,52.2,48.1,96,72,36,30.01,29.79,0,0,0,0.14
2013-8-6,73.4,60.1,50.0,54.2,51.0,46.9,96,75,43,29.92,29.81,0,0,0,0.07
2013-8-7,70.5,55.6,50.7,54.7,50.8,48.2,94,85,51,29.94,29.83,0,0,0,0.12
2013-8-8,63.4,53.5,48.6,53.1,49.6,45.6,96,87,58,30.05,29.90,0,0,0,0.05
2013-8-9,75.5,56.1,40.4,53.6,45.7,38.8,96,72,35,30.15,29.99,0,0,0,0.03
2013-8-10,76.2,54.7,42.7,51.7,45.6,40.3,94,75,37,30.21,29.97,0,0,0,0.35
2013-8-11,73.0,55.7,42.5,52.7,45.8,40.3,96,73,38,30.20,30.02,0,0,0,0.00
2013-8-12,74.9,60.2,45.6,50.1,46.3,41.9,90,63,37,30.08,29.92,0,0,0,0.00
2013-8-13,79.1,58.6,43.7,50.6,44.0,36.3,92,63,26,30.09,29.94,0,0,0,0.00
2013-8-14,78.0,59.3,42.8,48.4,40.7,34.8,86,55,22,30.07,29.93,0,0,0,0.00
2013-8-15,84.9,61.6,42.4,48.2,40.1,35.0,83,51,18,30.08,29.90,0,0,0,0.00
2013-8-16,85.6,63.2,43.8,49.0,40.3,35.0,80,48,17,30.04,29.88,0,0,0,0.00
2013-8-17,81.0,63.0,47.6,50.9,44.3,37.9,79,54,27,30.04,29.86,0,0,0,0.00
2013-8-18,80.8,61.1,47.1,58.0,48.6,41.6,93,68,32,30.01,29.87,0,0,0,0.34
2013-8-19,81.6,61.6,47.5,55.1,49.8,43.8,96,70,31,30.05,29.89,0,0,0,0.00
2013-8-20,83.6,68.1,53.8,52.3,48.4,45.3,76,52,28,29.93,29.81,0,0,0,0.00
2013-8-21,79.3,55.5,45.5,52.3,45.5,41.0,89,72,38,29.99,29.92,0,0,0,0.00
2013-8-24,69.6,59.4,53.5,54.9,51.5,47.9,93,76,50,30.04,29.88,0,0,0,0.38
2013-8-25,62.7,56.6,54.3,58.3,54.8,52.3,96,93,79,30.14,30.02,0,0,0,0.49
2013-8-26,77.6,62.0,54.1,61.5,54.1,49.2,97,78,40,30.14,29.93,0,0,0,0.09
2013-8-27,82.1,63.2,49.7,56.8,50.4,44.2,94,67,32,30.01,29.83,0,0,0,0.00
2013-8-28,83.6,64.7,47.7,54.6,49.1,44.9,92,62,30,29.96,29.83,0,0,0,0.00
2013-8-29,78.7,61.4,47.7,54.5,49.3,44.7,92,68,35,30.05,29.94,0,0,0,0.00
2013-8-30,85.8,64.7,50.2,55.1,49.5,45.2,90,63,27,30.06,29.84,0,0,0,0.00
2013-8-31,83.4,65.0,50.4,53.7,50.0,45.9,87,61,33,29.95,29.75,0,0,0,0.00
2013-9-1,84.1,64.8,48.0,53.6,48.0,44.2,90,59,27,29.96,29.78,0,0,0,0.00
2013-9-2,81.8,64.0,53.5,58.3,51.2,42.2,95,68,27,29.99,29.81,0,0,0,0.07
2013-9-3,81.1,62.0,48.4,58.4,50.6,44.7,92,69,36,30.00,29.90,0,0,0,0.02
2013-9-4,83.9,67.2,52.0,62.0,51.1,44.6,90,61,28,30.03,29.86,0,0,0,0.07
2013-9-5,83.8,65.5,48.4,54.4,49.1,43.4,95,61,26,30.04,29.87,0,0,0,0.00
2013-9-6,83.6,64.0,44.5,47.6,43.7,38.9,86,53,25,30.08,29.83,0,0,0,0.00
2013-9-7,83.5,64.7,46.7,51.4,44.8,40.9,83,53,24,29.95,29.76,0,0,0,0.00
2013-9-8,78.1,62.4,51.7,53.3,49.1,42.2,89,66,28,29.87,29.68,0,0,0,0.02
2013-9-9,72.1,59.8,49.3,53.9,49.5,45.5,94,71,43,29.84,29.70,0,0,0,0.01
2013-9-10,56.8,54.2,51.8,54.2,51.4,49.0,96,90,76,30.00,29.77,0,0,0,1.00
2013-9-11,71.3,57.2,47.4,57.4,51.1,44.6,97,82,46,30.05,29.93,0,0,0,0.57
2013-9-12,70.7,54.4,44.3,54.5,48.8,42.1,95,83,48,30.08,29.88,0,0,0,0.55
2013-9-13,67.6,55.8,48.4,54.8,50.4,47.0,97,83,55,29.99,29.81,0,0,0,0.51
2013-9-14,54.8,50.5,47.7,52.6,49.0,45.9,100,95,85,30.04,29.83,0,0,0,0.80
2013-9-15,66.6,53.2,45.4,54.2,48.2,44.3,100,85,54,30.09,29.95,0,0,0,0.09
2013-9-16,67.0,53.1,48.0,54.8,49.4,45.8,96,88,57,30.11,29.98,0,0,0,0.14
2013-9-17,69.9,56.9,48.2,55.0,50.1,46.3,98,80,52,30.09,29.81,0,0,0,0.12
2013-9-18,71.3,58.2,50.9,56.3,51.8,49.5,97,82,49,29.86,29.70,0,0,0,0.11
2013-12-10,0.5,-0.2,-0.8,-4.2,-4.9,-5.7,82,80,79,30.88,30.86,0,0,0,0.00
2013-12-11,32.6,11.3,-1.9,18.3,-14.8,-99.9,89,59,46,30.96,30.79,1,-201,3,0.00
2013-12-12,42.3,17.4,3.6,19.4,-9.5,-99.9,91,55,28,30.93,30.43,1,-185,3,0.00
2013-12-13,34.4,17.8,6.8,20.8,-5.5,-99.9,90,62,54,30.43,30.18,2,-175,5,0.00
2013-12-14,35.3,15.4,4.6,19.3,-9.7,-99.9,90,59,41,30.76,30.39,2,-183,5,0.00
2013-12-15,36.5,16.4,4.9,22.7,-9.1,-99.9,90,59,51,30.75,30.64,2,-194,3,0.00
2013-12-16,39.1,18.9,8.3,25.5,-4.2,-99.9,91,63,54,30.75,30.61,2,-172,4,0.00
2013-12-17,46.0,21.7,9.3,25.0,-4.1,-99.9,91,57,30,30.76,30.59,1,-175,2,0.13
2013-12-18,44.0,22.9,13.1,26.0,-4.2,-99.9,92,57,35,30.58,30.14,1,-196,2,0.08
2013-12-19,39.5,26.1,20.8,27.2,2.8,-99.9,89,61,50,30.14,29.84,2,-166,4,0.03
2013-12-20,33.0,21.8,16.4,29.7,-1.4,-99.9,94,71,85,29.90,29.75,2,-211,4,0.00
2013-12-21,28.4,16.3,8.4,22.3,-3.7,-99.9,91,69,73,30.12,29.74,1,-163,3,0.00
2013-12-22,29.8,12.6,-0.2,18.7,-9.4,-99.9,89,64,59,30.66,30.12,2,-167,5,0.00
2013-12-23,30.4,12.2,-0.4,18.3,-12.2,-99.9,92,61,56,30.88,30.66,1,-186,3,0.00
2013-12-24,38.0,18.0,4.4,24.1,11.1,0.2,90,75,53,30.84,30.53,3,0,7,0.00
2013-12-25,35.7,15.4,1.5,17.4,6.6,-2.7,88,70,36,30.84,30.68,1,0,4,0.00
2013-12-26,39.3,17.2,2.5,21.7,9.2,-1.6,92,73,40,30.84,30.66,1,0,3,0.00
2013-12-27,42.8,21.3,9.3,23.9,13.4,5.7,91,74,36,30.77,30.56,2,0,4,0.00
2013-12-28,38.9,23.2,9.9,23.6,16.0,6.3,92,75,50,30.56,30.21,1,0,3,0.00
2013-12-29,37.5,21.9,11.5,22.6,15.2,7.9,92,76,50,30.46,30.21,2,0,5,0.00
2013-12-30,34.7,17.8,5.1,22.2,11.3,1.3,89,77,56,30.72,30.46,1,0,3,0.00
2013-12-31,37.0,19.6,6.2,23.0,12.5,2.5,90,75,50,30.72,30.49,2,0,3,0.01
2014-1-1,43.0,22.8,11.4,21.5,12.1,1.1,93,68,20,30.60,30.38,2,0,4,0.00
2014-1-2,40.0,20.0,6.3,19.7,9.9,1.8,92,68,30,30.72,30.58,2,0,3,0.00